Regional Weather Roundup
Issued by NWS

Home | Current Version | Previous Version | Text Only | Print | Product List | Glossary Off
Versions: 1 2 3 4 5 6 7 8 9 10 11 12 13 14 15 16 17 18 19 20 21 22 23 24 25 26 27 28 29 30 31 32 33 34 35 36 37 38 39 40 41 42 43 44 45 46 47 48 49 50

000
ASUS45 KBOI 261410
RWRID

IDAHO REGIONAL WEATHER ROUNDUP
NATIONAL WEATHER SERVICE BOISE ID
800 AM MDT THU MAY 26 2016

NOTE: "FAIR" INDICATES FEW OR NO CLOUDS BELOW 12000 FEET
WITH NO SIGNIFICANT WEATHER AND/OR OBSTRUCTIONS TO VISIBILITY

IDZ012-014-261500-
SOUTHWEST IDAHO


CITY           SKY/WX    TMP DP  RH WIND       PRES   REMARKS
BOISE          SUNNY     51  42  71 W5        30.03R
CALDWELL       SUNNY     56  45  66 W7        30.04R
MOUNTAIN HOME  SUNNY     57  48  72 NW10      30.02R
$$

IDZ016-017-261500-
SOUTHCENTRAL IDAHO


CITY           SKY/WX    TMP DP  RH WIND       PRES   REMARKS
BURLEY         SUNNY     48  41  76 S5        30.04R
JEROME         SUNNY     49  42  77 S5        30.05R
TWIN FALLS     SUNNY     52  40  63 SW10      30.05R
$$

IDZ019>023-261500-
SOUTHEAST IDAHO


CITY           SKY/WX    TMP DP  RH WIND       PRES   REMARKS
IDAHO FALLS    MOSUNNY   44  41  89 N3        30.06R
POCATELLO      SUNNY     49  44  83 SW6       30.07R
REXBURG        SUNNY     43  39  86 NE3       30.06S
$$

IDZ006-010-011-018-031-032-261500-
CENTRAL IDAHO MOUNTAINS


CITY           SKY/WX    TMP DP  RH WIND       PRES   REMARKS
MCCALL         SUNNY     42  37  82 CALM      30.06F
HAILEY         MOSUNNY   43  36  75 NW9       30.08S
STANLEY          N/A     32  29  88 CALM      30.13S
SALMON         SUNNY     43  36  75 CALM      30.08S
CHALLIS        SUNNY     44  37  76 E5        30.09S
$$

IDZ002-004-006-007-026-261500-
NORTHERN IDAHO


CITY           SKY/WX    TMP DP  RH WIND       PRES   REMARKS
LEWISTON       MOSUNNY   55  48  77 CALM      30.05S
LOWELL           N/A     51  49  92 CALM      30.08R
COEUR D`ALENE  PTSUNNY   54  43  66 S8        30.03R
MULLAN PASS    FOG       40  39  97 CALM      30.07S VSB 1/4
$$



USA.gov is the U.S. government's official web portal to all federal, state and local government web resources and services.